TimeEDT,TemperatureF,Dew PointF,Humidity,Sea Level PressureIn,VisibilityMPH,Wind Direction,Wind SpeedMPH,Gust SpeedMPH,PrecipitationIn,Events,Conditions,WindDirDegrees,DateUTC
12:56 AM,63.0,55.9,78,30.01,10.0,Calm,Calm,-,N/A,,Clear,0,2013-10-03 04:56:00
1:56 AM,59.0,55.0,87,30.02,10.0,NNW,3.5,-,N/A,,Clear,340,2013-10-03 05:56:00
2:56 AM,57.9,55.0,90,30.03,10.0,North,5.8,-,N/A,,Clear,360,2013-10-03 06:56:00
3:56 AM,57.0,54.0,89,30.04,8.0,Calm,Calm,-,N/A,,Clear,0,2013-10-03 07:56:00
4:56 AM,57.0,55.0,93,30.05,7.0,Calm,Calm,-,N/A,,Clear,0,2013-10-03 08:56:00
5:56 AM,55.9,53.1,90,30.06,10.0,North,4.6,-,N/A,,Partly Cloudy,10,2013-10-03 09:56:00
6:56 AM,57.0,53.1,87,30.07,10.0,Calm,Calm,-,N/A,,Mostly Cloudy,0,2013-10-03 10:56:00
7:56 AM,61.0,55.9,83,30.08,10.0,NNW,4.6,-,N/A,,Scattered Clouds,330,2013-10-03 11:56:00
8:56 AM,68.0,55.0,63,30.10,10.0,NNW,6.9,-,N/A,,Mostly Cloudy,330,2013-10-03 12:56:00
9:56 AM,72.0,50.0,46,30.11,10.0,NNW,8.1,-,N/A,,Mostly Cloudy,330,2013-10-03 13:56:00
10:56 AM,73.9,46.0,37,30.10,10.0,NNW,8.1,-,N/A,,Mostly Cloudy,340,2013-10-03 14:56:00
11:56 AM,75.9,44.1,32,30.09,10.0,Variable,3.5,-,N/A,,Mostly Cloudy,0,2013-10-03 15:56:00
12:56 PM,75.9,45.0,33,30.08,10.0,North,5.8,-,N/A,,Overcast,10,2013-10-03 16:56:00
1:56 PM,77.0,45.0,32,30.05,10.0,NNW,8.1,-,N/A,,Overcast,340,2013-10-03 17:56:00
2:56 PM,75.9,51.1,42,30.05,10.0,SW,6.9,-,N/A,,Overcast,220,2013-10-03 18:56:00
3:56 PM,73.9,51.1,45,30.04,10.0,SSW,6.9,-,N/A,,Overcast,210,2013-10-03 19:56:00
4:56 PM,72.0,50.0,46,30.04,10.0,SSW,8.1,-,N/A,,Overcast,210,2013-10-03 20:56:00
5:56 PM,70.0,50.0,49,30.05,10.0,SW,6.9,-,N/A,,Overcast,220,2013-10-03 21:56:00
6:56 PM,68.0,54.0,61,30.06,10.0,SW,5.8,-,N/A,,Overcast,220,2013-10-03 22:56:00
7:56 PM,66.9,55.0,66,30.06,10.0,SW,5.8,-,N/A,,Overcast,220,2013-10-03 23:56:00
8:56 PM,66.9,55.9,68,30.06,10.0,SW,5.8,-,N/A,,Overcast,220,2013-10-04 00:56:00
9:56 PM,64.9,55.9,73,30.07,10.0,SW,4.6,-,N/A,,Mostly Cloudy,220,2013-10-04 01:56:00
10:56 PM,64.9,57.0,75,30.08,10.0,Calm,Calm,-,N/A,,Scattered Clouds,0,2013-10-04 02:56:00